date,time,SUV Intensity [MED/Hr],UV Index,Daily total [MED],Since Last [MED]
28/09/2022,00:04:26,0.000,0.0,0.0,0.0
28/09/2022,01:13:26,0.000,0.0,0.0,0.0
28/09/2022,01:33:26,-0.000,0.0,0.0,0.0
28/09/2022,01:54:28,0.000,0.0,0.0,0.0
28/09/2022,02:07:26,0.000,0.0,0.0,0.0
28/09/2022,02:41:26,0.000,0.0,0.0,0.0
28/09/2022,02:43:28,0.000,0.0,0.0,0.0
28/09/2022,02:46:26,0.000,0.0,0.0,0.0
28/09/2022,02:51:26,0.000,0.0,0.0,0.0
28/09/2022,03:03:26,0.000,0.0,0.0,0.0
28/09/2022,03:24:26,0.000,0.0,0.0,0.0
28/09/2022,03:51:26,0.000,0.0,0.0,0.0
28/09/2022,03:59:27,0.000,0.0,0.0,0.0
28/09/2022,04:06:26,0.000,0.0,0.0,0.0
28/09/2022,04:25:28,0.000,0.0,0.0,0.0
28/09/2022,04:31:26,0.000,0.0,0.0,0.0
28/09/2022,04:38:26,0.000,0.0,0.0,0.0
28/09/2022,04:40:28,0.000,0.0,0.0,0.0
28/09/2022,05:06:26,0.001,0.0,0.0,0.0
28/09/2022,05:20:27,0.001,0.0,0.0,0.0
28/09/2022,06:03:27,0.003,0.0,0.0,0.0
28/09/2022,06:17:27,0.007,0.0,0.001,0.001
28/09/2022,06:46:27,0.023,0.0,0.008,0.007
28/09/2022,07:25:27,0.076,0.0,0.037,0.029
28/09/2022,07:27:27,0.082,0.0,0.04,0.003
28/09/2022,10:01:21,0.692,2.0,0.84,0.8
28/09/2022,10:44:12,0.592,1.0,1.34,0.5
28/09/2022,10:46:31,0.684,2.0,1.366,0.026
28/09/2022,10:48:55,0.877,2.0,1.4,0.034
28/09/2022,10:49:54,0.883,2.0,1.414,0.014
28/09/2022,10:50:54,0.881,2.0,1.429,0.015
28/09/2022,10:51:55,0.873,2.0,1.444,0.015
28/09/2022,10:52:53,0.856,2.0,1.458,0.014
28/09/2022,10:53:53,0.664,2.0,1.472,0.014
28/09/2022,10:54:54,0.522,1.0,1.482,0.01
28/09/2022,10:55:53,0.514,1.0,1.491,0.009
28/09/2022,10:56:54,0.536,1.0,1.5,0.009
28/09/2022,10:57:54,0.544,1.0,1.509,0.009
28/09/2022,10:58:53,0.565,1.0,1.518,0.009
28/09/2022,10:59:54,0.582,1.0,1.527,0.009
28/09/2022,11:00:54,0.593,1.0,1.537,0.01
28/09/2022,11:01:53,0.679,2.0,1.547,0.01
28/09/2022,11:02:54,0.918,2.0,1.562,0.015
28/09/2022,11:03:53,0.643,1.0,1.575,0.013
28/09/2022,11:04:53,0.622,1.0,1.586,0.011
28/09/2022,11:05:54,0.905,2.0,1.599,0.013
28/09/2022,11:06:54,0.930,2.0,1.615,0.016
28/09/2022,11:07:54,0.936,2.0,1.63,0.015
28/09/2022,11:08:53,0.940,2.0,1.646,0.016
28/09/2022,11:09:53,0.940,2.0,1.661,0.015
28/09/2022,11:10:54,0.943,2.0,1.677,0.016
28/09/2022,11:11:54,0.943,2.0,1.693,0.016
28/09/2022,11:12:53,0.935,2.0,1.709,0.016
28/09/2022,11:13:54,0.933,2.0,1.724,0.015
28/09/2022,11:14:53,0.930,2.0,1.74,0.016
28/09/2022,11:15:53,0.892,2.0,1.755,0.015
28/09/2022,11:16:54,0.635,1.0,1.767,0.012
28/09/2022,11:17:53,0.619,1.0,1.778,0.011
28/09/2022,11:18:53,0.945,2.0,1.79,0.012
28/09/2022,11:19:54,0.967,2.0,1.805,0.015
28/09/2022,11:20:53,0.986,2.0,1.822,0.017
28/09/2022,11:21:54,0.999,2.0,1.838,0.016
28/09/2022,11:22:54,1.008,2.0,1.855,0.017
28/09/2022,11:23:55,1.004,2.0,1.872,0.017
28/09/2022,11:24:53,0.670,2.0,1.885,0.013
28/09/2022,11:25:53,0.625,1.0,1.896,0.011
28/09/2022,11:26:54,0.587,1.0,1.906,0.01
28/09/2022,11:27:53,0.608,1.0,1.916,0.01
28/09/2022,11:28:53,0.576,1.0,1.925,0.009
28/09/2022,11:29:54,0.588,1.0,1.935,0.01
28/09/2022,11:30:53,0.600,1.0,1.945,0.01
28/09/2022,11:31:54,0.935,2.0,1.956,0.011
28/09/2022,11:32:53,0.946,2.0,1.972,0.016
28/09/2022,11:33:53,0.963,2.0,1.988,0.016
28/09/2022,11:34:54,0.972,2.0,2.004,0.016
28/09/2022,11:35:53,0.970,2.0,2.02,0.016
28/09/2022,11:36:53,0.971,2.0,2.036,0.016
28/09/2022,11:37:54,0.950,2.0,2.051,0.015
28/09/2022,11:38:54,0.803,2.0,2.066,0.015
28/09/2022,11:39:54,0.843,2.0,2.079,0.013
28/09/2022,11:40:53,0.732,2.0,2.092,0.013
28/09/2022,11:41:54,0.312,1.0,2.101,0.009
28/09/2022,11:42:54,0.254,1.0,2.105,0.004
28/09/2022,11:43:54,0.225,1.0,2.109,0.004
28/09/2022,11:44:54,0.216,0.0,2.113,0.004
28/09/2022,11:45:53,0.224,1.0,2.117,0.004
28/09/2022,11:46:53,0.246,1.0,2.121,0.004
28/09/2022,11:47:54,0.285,1.0,2.125,0.004
28/09/2022,11:48:54,0.331,1.0,2.13,0.005
28/09/2022,11:49:53,0.380,1.0,2.136,0.006
28/09/2022,11:50:54,0.429,1.0,2.143,0.007
28/09/2022,11:51:54,0.475,1.0,2.15,0.007
28/09/2022,11:52:54,0.516,1.0,2.159,0.009
28/09/2022,11:53:54,0.548,1.0,2.167,0.008
28/09/2022,11:54:54,0.576,1.0,2.177,0.01
28/09/2022,11:55:54,0.602,1.0,2.187,0.01
28/09/2022,11:56:55,0.628,1.0,2.197,0.01
28/09/2022,11:57:55,0.817,2.0,2.208,0.011
28/09/2022,11:58:51,0.984,2.0,2.222,0.014
28/09/2022,11:59:54,0.969,2.0,2.238,0.016
28/09/2022,12:00:54,0.770,2.0,2.252,0.014
28/09/2022,12:01:53,0.979,2.0,2.266,0.014
28/09/2022,12:02:54,0.892,2.0,2.282,0.016
28/09/2022,12:03:54,0.945,2.0,2.298,0.016
28/09/2022,12:04:53,1.000,2.0,2.312,0.014
28/09/2022,12:05:53,0.963,2.0,2.329,0.017
28/09/2022,12:06:54,0.992,2.0,2.345,0.016
28/09/2022,12:07:54,0.997,2.0,2.361,0.016
28/09/2022,12:08:54,0.742,2.0,2.374,0.013
28/09/2022,12:09:54,0.900,2.0,2.389,0.015
28/09/2022,12:10:54,0.945,2.0,2.402,0.013
28/09/2022,12:11:54,0.933,2.0,2.418,0.016
28/09/2022,12:12:54,0.914,2.0,2.433,0.015
28/09/2022,12:13:54,0.593,1.0,2.443,0.01
28/09/2022,12:14:53,0.594,1.0,2.453,0.01
28/09/2022,12:15:54,0.604,1.0,2.463,0.01
28/09/2022,12:16:54,0.648,1.0,2.474,0.011
28/09/2022,12:17:53,0.680,2.0,2.484,0.01
28/09/2022,12:18:54,0.747,2.0,2.496,0.012
28/09/2022,12:19:53,0.955,2.0,2.511,0.015
28/09/2022,12:20:54,0.960,2.0,2.527,0.016
28/09/2022,12:21:54,0.856,2.0,2.543,0.016
28/09/2022,12:22:54,0.678,2.0,2.556,0.013
28/09/2022,12:23:54,0.911,2.0,2.569,0.013
28/09/2022,12:24:54,0.583,1.0,2.58,0.011
28/09/2022,12:25:53,0.853,2.0,2.591,0.011
28/09/2022,12:26:54,0.590,1.0,2.601,0.01
28/09/2022,12:27:54,0.571,1.0,2.611,0.01
28/09/2022,12:28:53,0.558,1.0,2.62,0.009
28/09/2022,12:29:54,0.551,1.0,2.63,0.01
28/09/2022,12:30:53,0.528,1.0,2.639,0.009
28/09/2022,12:31:54,0.483,1.0,2.647,0.008
28/09/2022,12:32:54,0.440,1.0,2.655,0.008
28/09/2022,12:33:54,0.394,1.0,2.662,0.007
28/09/2022,12:34:54,0.373,1.0,2.668,0.006
28/09/2022,12:35:53,0.406,1.0,2.674,0.006
28/09/2022,12:36:53,0.310,1.0,2.68,0.006
28/09/2022,12:37:54,0.288,1.0,2.685,0.005
28/09/2022,12:38:54,0.278,1.0,2.69,0.005
28/09/2022,12:39:53,0.270,1.0,2.695,0.005
28/09/2022,12:40:54,0.262,1.0,2.699,0.004
28/09/2022,12:41:54,0.257,1.0,2.703,0.004
28/09/2022,12:42:53,0.253,1.0,2.708,0.005
28/09/2022,12:43:53,0.256,1.0,2.712,0.004
28/09/2022,12:44:54,0.263,1.0,2.716,0.004
28/09/2022,12:45:55,0.278,1.0,2.721,0.005
28/09/2022,12:46:54,0.295,1.0,2.725,0.004
28/09/2022,12:47:53,0.318,1.0,2.731,0.006
28/09/2022,12:48:54,0.342,1.0,2.736,0.005
28/09/2022,12:49:54,0.367,1.0,2.742,0.006
28/09/2022,12:50:54,0.393,1.0,2.748,0.006
28/09/2022,12:51:54,0.418,1.0,2.755,0.007
28/09/2022,12:52:54,0.443,1.0,2.762,0.007
28/09/2022,12:53:53,0.470,1.0,2.77,0.008
28/09/2022,12:54:53,0.494,1.0,2.778,0.008
28/09/2022,12:55:54,0.518,1.0,2.786,0.008
28/09/2022,12:56:54,0.538,1.0,2.795,0.009
28/09/2022,12:57:54,0.560,1.0,2.804,0.009
28/09/2022,12:58:53,0.562,1.0,2.814,0.01
28/09/2022,12:59:54,0.570,1.0,2.823,0.009
28/09/2022,13:00:53,0.575,1.0,2.833,0.01
28/09/2022,13:01:54,0.592,1.0,2.843,0.01
28/09/2022,13:02:54,0.712,2.0,2.853,0.01
28/09/2022,13:03:54,0.846,2.0,2.864,0.011
28/09/2022,13:04:54,0.866,2.0,2.879,0.015
28/09/2022,13:05:54,0.862,2.0,2.893,0.014
28/09/2022,13:06:54,0.780,2.0,2.907,0.014
28/09/2022,13:07:54,0.813,2.0,2.919,0.012
28/09/2022,13:08:54,0.787,2.0,2.933,0.014
28/09/2022,13:09:53,0.751,2.0,2.946,0.013
28/09/2022,13:10:54,0.688,2.0,2.957,0.011
28/09/2022,13:11:54,0.649,1.0,2.968,0.011
28/09/2022,13:12:54,0.544,1.0,2.978,0.01
28/09/2022,13:13:53,0.355,1.0,2.986,0.008
28/09/2022,13:14:54,0.304,1.0,2.992,0.006
28/09/2022,13:15:57,0.281,1.0,2.998,0.006
28/09/2022,13:16:57,0.276,1.0,3.002,0.004
28/09/2022,13:17:55,0.318,1.0,3.007,0.005
28/09/2022,13:18:55,0.530,1.0,3.014,0.007
28/09/2022,13:19:54,0.295,1.0,3.021,0.007
28/09/2022,13:20:54,0.308,1.0,3.026,0.005
28/09/2022,13:21:54,0.331,1.0,3.031,0.005
28/09/2022,13:22:54,0.354,1.0,3.037,0.006
28/09/2022,13:23:54,0.377,1.0,3.043,0.006
28/09/2022,13:24:53,0.399,1.0,3.049,0.006
28/09/2022,13:25:54,0.421,1.0,3.056,0.007
28/09/2022,13:26:53,0.442,1.0,3.064,0.008
28/09/2022,13:27:54,0.452,1.0,3.071,0.007
28/09/2022,13:28:54,0.464,1.0,3.079,0.008
28/09/2022,13:29:53,0.476,1.0,3.086,0.007
28/09/2022,13:30:54,0.485,1.0,3.094,0.008
28/09/2022,13:31:54,0.501,1.0,3.103,0.009
28/09/2022,13:32:54,0.557,1.0,3.112,0.009
28/09/2022,13:33:53,0.722,2.0,3.121,0.009
28/09/2022,13:34:53,0.726,2.0,3.133,0.012
28/09/2022,13:35:54,0.718,2.0,3.145,0.012
28/09/2022,13:36:54,0.610,1.0,3.156,0.011
28/09/2022,13:37:53,0.727,2.0,3.167,0.011
28/09/2022,13:38:54,0.730,2.0,3.179,0.012
28/09/2022,13:39:54,0.730,2.0,3.192,0.013
28/09/2022,13:40:53,0.734,2.0,3.204,0.012
28/09/2022,13:41:54,0.735,2.0,3.216,0.012
28/09/2022,13:42:54,0.731,2.0,3.228,0.012
28/09/2022,13:43:53,0.727,2.0,3.24,0.012
28/09/2022,13:44:54,0.721,2.0,3.252,0.012
28/09/2022,13:45:54,0.717,2.0,3.264,0.012
28/09/2022,13:46:54,0.710,2.0,3.276,0.012
28/09/2022,13:47:53,0.701,2.0,3.288,0.012
28/09/2022,13:48:54,0.686,2.0,3.3,0.012
28/09/2022,13:49:54,0.668,2.0,3.311,0.011
28/09/2022,13:50:54,0.647,1.0,3.322,0.011
28/09/2022,13:51:54,0.626,1.0,3.332,0.01
28/09/2022,13:52:54,0.604,1.0,3.343,0.011
28/09/2022,13:53:53,0.574,1.0,3.353,0.01
28/09/2022,13:54:54,0.542,1.0,3.362,0.009
28/09/2022,13:55:54,0.510,1.0,3.371,0.009
28/09/2022,13:56:54,0.485,1.0,3.379,0.008
28/09/2022,13:57:54,0.471,1.0,3.387,0.008
28/09/2022,13:58:54,0.478,1.0,3.395,0.008
28/09/2022,13:59:54,0.494,1.0,3.402,0.007
28/09/2022,14:00:54,0.510,1.0,3.411,0.009
28/09/2022,14:01:54,0.527,1.0,3.419,0.008
28/09/2022,14:02:54,0.545,1.0,3.428,0.009
28/09/2022,14:03:54,0.560,1.0,3.437,0.009
28/09/2022,14:04:53,0.567,1.0,3.447,0.01
28/09/2022,14:05:55,0.572,1.0,3.456,0.009
28/09/2022,14:06:54,0.568,1.0,3.466,0.01
28/09/2022,14:07:54,0.568,1.0,3.475,0.009
28/09/2022,14:08:54,0.563,1.0,3.485,0.01
28/09/2022,14:09:53,0.554,1.0,3.494,0.009
28/09/2022,14:10:54,0.549,1.0,3.503,0.009
28/09/2022,14:11:54,0.539,1.0,3.512,0.009
28/09/2022,14:12:53,0.529,1.0,3.521,0.009
28/09/2022,14:13:54,0.510,1.0,3.53,0.009
28/09/2022,14:14:54,0.483,1.0,3.538,0.008
28/09/2022,14:15:53,0.453,1.0,3.546,0.008
28/09/2022,14:16:54,0.337,1.0,3.552,0.006
28/09/2022,14:17:53,0.284,1.0,3.557,0.005
28/09/2022,14:18:54,0.261,1.0,3.562,0.005
28/09/2022,14:19:54,0.244,1.0,3.566,0.004
28/09/2022,14:20:57,0.235,1.0,3.57,0.004
28/09/2022,14:21:55,0.245,1.0,3.574,0.004
28/09/2022,14:22:54,0.222,1.0,3.578,0.004
28/09/2022,14:23:54,0.222,1.0,3.581,0.003
28/09/2022,14:24:53,0.227,1.0,3.585,0.004
28/09/2022,14:25:54,0.234,1.0,3.589,0.004
28/09/2022,14:26:54,0.242,1.0,3.593,0.004
28/09/2022,14:27:54,0.249,1.0,3.597,0.004
28/09/2022,14:28:54,0.258,1.0,3.601,0.004
28/09/2022,14:29:53,0.274,1.0,3.606,0.005
28/09/2022,14:30:54,0.279,1.0,3.61,0.004
28/09/2022,14:31:53,0.302,1.0,3.615,0.005
28/09/2022,14:32:54,0.337,1.0,3.621,0.006
28/09/2022,14:33:54,0.297,1.0,3.627,0.006
28/09/2022,14:34:53,0.296,1.0,3.632,0.005
28/09/2022,14:35:55,0.295,1.0,3.637,0.005
28/09/2022,14:36:54,0.297,1.0,3.641,0.004
28/09/2022,14:37:55,0.300,1.0,3.646,0.005
28/09/2022,14:38:54,0.305,1.0,3.652,0.006
28/09/2022,14:39:54,0.383,1.0,3.657,0.005
28/09/2022,14:40:53,0.317,1.0,3.662,0.005
28/09/2022,14:41:54,0.404,1.0,3.669,0.007
28/09/2022,14:42:54,0.405,1.0,3.675,0.006
28/09/2022,14:43:54,0.406,1.0,3.682,0.007
28/09/2022,14:44:54,0.406,1.0,3.689,0.007
28/09/2022,14:45:54,0.400,1.0,3.696,0.007
28/09/2022,14:46:53,0.394,1.0,3.702,0.006
28/09/2022,14:47:54,0.390,1.0,3.709,0.007
28/09/2022,14:48:54,0.384,1.0,3.715,0.006
28/09/2022,14:49:54,0.382,1.0,3.721,0.006
28/09/2022,14:50:54,0.379,1.0,3.727,0.006
28/09/2022,14:51:54,0.368,1.0,3.734,0.007
28/09/2022,14:52:59,0.366,1.0,3.74,0.006
28/09/2022,14:53:54,0.333,1.0,3.745,0.005
28/09/2022,14:54:53,0.355,1.0,3.751,0.006
28/09/2022,14:55:54,0.290,1.0,3.756,0.005
28/09/2022,14:56:54,0.288,1.0,3.761,0.005
28/09/2022,14:57:54,0.327,1.0,3.766,0.005
28/09/2022,14:58:54,0.337,1.0,3.772,0.006
28/09/2022,14:59:53,0.330,1.0,3.777,0.005
28/09/2022,15:00:54,0.314,1.0,3.782,0.005
28/09/2022,15:01:53,0.262,1.0,3.787,0.005
28/09/2022,15:02:54,0.255,1.0,3.791,0.004
28/09/2022,15:03:54,0.252,1.0,3.795,0.004
28/09/2022,15:04:54,0.248,1.0,3.8,0.005
28/09/2022,15:05:54,0.247,1.0,3.804,0.004
28/09/2022,15:06:54,0.245,1.0,3.808,0.004
28/09/2022,15:07:54,0.244,1.0,3.812,0.004
28/09/2022,15:08:54,0.244,1.0,3.816,0.004
28/09/2022,15:09:54,0.245,1.0,3.82,0.004
28/09/2022,15:10:54,0.292,1.0,3.825,0.005
28/09/2022,15:11:54,0.291,1.0,3.83,0.005
28/09/2022,15:12:54,0.288,1.0,3.834,0.004
28/09/2022,15:13:54,0.285,1.0,3.839,0.005
28/09/2022,15:14:54,0.281,1.0,3.844,0.005
28/09/2022,15:15:54,0.278,1.0,3.849,0.005
28/09/2022,15:16:54,0.273,1.0,3.853,0.004
28/09/2022,15:17:54,0.269,1.0,3.858,0.005
28/09/2022,15:18:54,0.265,1.0,3.862,0.004
28/09/2022,15:19:54,0.260,1.0,3.866,0.004
28/09/2022,15:20:54,0.256,1.0,3.871,0.005
28/09/2022,15:21:54,0.250,1.0,3.875,0.004
28/09/2022,15:22:53,0.216,0.0,3.879,0.004
28/09/2022,15:23:54,0.221,1.0,3.883,0.004
28/09/2022,15:24:54,0.203,0.0,3.886,0.003
28/09/2022,16:00:35,0.114,0.0,3.976,0.09
28/09/2022,16:01:06,0.113,0.0,3.977,0.001
28/09/2022,16:02:55,0.109,0.0,3.981,0.004
28/09/2022,16:03:54,0.108,0.0,3.983,0.002
28/09/2022,16:04:54,0.108,0.0,3.984,0.001
28/09/2022,16:05:54,0.104,0.0,3.986,0.002
28/09/2022,16:06:54,0.105,0.0,3.988,0.002
28/09/2022,16:07:54,0.100,0.0,3.99,0.002
28/09/2022,16:08:54,0.097,0.0,3.991,0.001
28/09/2022,16:09:54,0.096,0.0,3.993,0.002
28/09/2022,16:10:54,0.093,0.0,3.994,0.001
28/09/2022,16:11:54,0.092,0.0,3.996,0.002
28/09/2022,16:12:54,0.090,0.0,3.997,0.001
28/09/2022,16:13:54,0.088,0.0,3.999,0.002
28/09/2022,16:14:54,0.086,0.0,4.0,0.001
28/09/2022,16:15:54,0.084,0.0,4.002,0.002
28/09/2022,16:16:54,0.082,0.0,4.003,0.001
28/09/2022,16:17:54,0.081,0.0,4.005,0.002
28/09/2022,16:18:54,0.079,0.0,4.006,0.001
28/09/2022,16:19:54,0.077,0.0,4.007,0.001
28/09/2022,16:20:54,0.075,0.0,4.008,0.001
28/09/2022,16:21:54,0.073,0.0,4.01,0.002
28/09/2022,16:22:54,0.071,0.0,4.011,0.001
28/09/2022,16:23:55,0.069,0.0,4.012,0.001
28/09/2022,16:24:54,0.068,0.0,4.013,0.001
28/09/2022,16:25:54,0.066,0.0,4.014,0.001
28/09/2022,16:26:54,0.065,0.0,4.015,0.001
28/09/2022,16:27:54,0.064,0.0,4.016,0.001
28/09/2022,16:28:54,0.062,0.0,4.017,0.001
28/09/2022,16:29:54,0.063,0.0,4.019,0.002
28/09/2022,16:30:54,0.059,0.0,4.02,0.001
28/09/2022,16:31:54,0.059,0.0,4.021,0.001
28/09/2022,16:32:54,0.057,0.0,4.022,0.001
28/09/2022,16:33:54,0.057,0.0,4.022,0.0
28/09/2022,16:34:54,0.054,0.0,4.023,0.001
28/09/2022,16:35:54,0.054,0.0,4.024,0.001
28/09/2022,16:36:54,0.052,0.0,4.025,0.001
28/09/2022,16:37:54,0.050,0.0,4.026,0.001
28/09/2022,16:38:54,0.049,0.0,4.027,0.001
28/09/2022,16:39:54,0.048,0.0,4.028,0.001
28/09/2022,16:40:54,0.046,0.0,4.028,0.0
28/09/2022,16:41:54,0.044,0.0,4.029,0.001
28/09/2022,16:42:54,0.043,0.0,4.03,0.001
28/09/2022,16:43:54,0.042,0.0,4.031,0.001
28/09/2022,16:44:54,0.040,0.0,4.031,0.0
28/09/2022,16:45:54,0.038,0.0,4.032,0.001
28/09/2022,16:46:54,0.035,0.0,4.033,0.001
28/09/2022,16:47:54,0.034,0.0,4.033,0.0
28/09/2022,16:48:54,0.031,0.0,4.034,0.001
28/09/2022,16:49:54,0.031,0.0,4.034,0.0
28/09/2022,16:50:54,0.030,0.0,4.035,0.001
28/09/2022,16:51:54,0.028,0.0,4.035,0.0
28/09/2022,16:52:54,0.027,0.0,4.036,0.001
28/09/2022,16:53:54,0.023,0.0,4.036,0.0
28/09/2022,16:54:54,0.023,0.0,4.036,0.0
28/09/2022,16:55:54,0.021,0.0,4.037,0.001
28/09/2022,16:56:55,0.019,0.0,4.037,0.0
28/09/2022,16:57:54,0.019,0.0,4.037,0.0
28/09/2022,16:58:54,0.018,0.0,4.038,0.001
28/09/2022,16:59:54,0.017,0.0,4.038,0.0
28/09/2022,17:00:54,0.016,0.0,4.038,0.0
28/09/2022,17:01:54,0.016,0.0,4.039,0.001
28/09/2022,17:02:55,0.015,0.0,4.039,0.0
28/09/2022,17:03:54,0.015,0.0,4.039,0.0
28/09/2022,17:04:54,0.014,0.0,4.039,0.0
28/09/2022,17:05:54,0.013,0.0,4.04,0.001
28/09/2022,17:06:54,0.013,0.0,4.04,0.0
28/09/2022,17:07:55,0.012,0.0,4.04,0.0
28/09/2022,17:08:54,0.011,0.0,4.04,0.0
28/09/2022,17:09:54,0.010,0.0,4.04,0.0
28/09/2022,17:10:55,0.010,0.0,4.041,0.001
28/09/2022,17:11:54,0.009,0.0,4.041,0.0
28/09/2022,17:12:54,0.009,0.0,4.041,0.0
28/09/2022,17:13:54,0.008,0.0,4.041,0.0
28/09/2022,17:14:54,0.008,0.0,4.041,0.0
28/09/2022,17:15:55,0.009,0.0,4.041,0.0
28/09/2022,17:16:54,0.007,0.0,4.041,0.0
28/09/2022,17:17:54,0.007,0.0,4.041,0.0
28/09/2022,17:18:55,0.006,0.0,4.042,0.001
28/09/2022,17:19:54,0.007,0.0,4.042,0.0
28/09/2022,17:20:54,0.008,0.0,4.042,0.0
28/09/2022,17:21:54,0.007,0.0,4.042,0.0
28/09/2022,17:22:54,0.006,0.0,4.042,0.0
28/09/2022,17:23:54,0.006,0.0,4.042,0.0
28/09/2022,17:24:54,0.005,0.0,4.042,0.0
28/09/2022,17:25:54,0.005,0.0,4.042,0.0
28/09/2022,17:26:54,0.005,0.0,4.042,0.0
28/09/2022,17:27:54,0.004,0.0,4.042,0.0
28/09/2022,17:28:54,0.004,0.0,4.042,0.0
28/09/2022,17:29:54,0.003,0.0,4.042,0.0
28/09/2022,17:30:54,0.003,0.0,4.042,0.0
28/09/2022,17:31:54,0.003,0.0,4.042,0.0
28/09/2022,17:32:54,0.003,0.0,4.042,0.0
28/09/2022,17:33:54,0.002,0.0,4.042,0.0
28/09/2022,17:34:54,0.003,0.0,4.042,0.0
28/09/2022,17:35:54,0.002,0.0,4.042,0.0
28/09/2022,17:36:54,0.002,0.0,4.042,0.0
28/09/2022,17:37:54,0.002,0.0,4.042,0.0
28/09/2022,17:38:54,0.002,0.0,4.042,0.0
28/09/2022,17:39:54,0.002,0.0,4.042,0.0
28/09/2022,17:40:54,0.001,0.0,4.042,0.0
28/09/2022,17:41:54,0.001,0.0,4.042,0.0
28/09/2022,17:42:54,0.002,0.0,4.042,0.0
28/09/2022,17:43:54,0.000,0.0,4.042,0.0
28/09/2022,17:44:54,0.000,0.0,4.042,0.0
28/09/2022,17:45:54,0.000,0.0,4.042,0.0
28/09/2022,17:46:55,0.001,0.0,4.042,0.0
28/09/2022,17:47:54,-0.000,0.0,4.042,0.0
28/09/2022,17:48:54,0.000,0.0,4.042,0.0
28/09/2022,17:49:54,-0.001,0.0,4.042,0.0
28/09/2022,17:50:54,0.000,0.0,4.042,0.0
28/09/2022,17:51:54,-0.001,0.0,4.042,0.0
28/09/2022,17:52:54,0.000,0.0,4.042,0.0
28/09/2022,17:53:55,-0.001,0.0,4.042,0.0
28/09/2022,17:54:54,-0.001,0.0,4.042,0.0
28/09/2022,17:55:54,-0.001,0.0,4.042,0.0
28/09/2022,17:56:54,-0.001,0.0,4.042,0.0
28/09/2022,17:57:54,-0.000,0.0,4.042,0.0
28/09/2022,17:58:54,-0.000,0.0,4.042,0.0
28/09/2022,17:59:54,-0.001,0.0,4.042,0.0
28/09/2022,18:00:55,-0.002,0.0,4.042,0.0
28/09/2022,18:01:56,-0.002,0.0,4.042,0.0
28/09/2022,18:02:54,-0.002,0.0,4.042,0.0
28/09/2022,18:03:54,-0.002,0.0,4.042,0.0
28/09/2022,18:04:54,-0.002,0.0,4.042,0.0
28/09/2022,18:05:54,-0.002,0.0,4.042,0.0
28/09/2022,18:06:55,-0.002,0.0,4.042,0.0
28/09/2022,18:07:54,-0.002,0.0,4.042,0.0
28/09/2022,18:08:54,-0.001,0.0,4.042,0.0
28/09/2022,18:09:54,-0.002,0.0,4.042,0.0
28/09/2022,18:10:54,-0.003,0.0,4.042,0.0
28/09/2022,18:11:54,-0.003,0.0,4.042,0.0
28/09/2022,18:12:54,-0.002,0.0,4.042,0.0
28/09/2022,18:13:55,-0.003,0.0,4.042,0.0
28/09/2022,18:14:54,-0.002,0.0,4.042,0.0
28/09/2022,18:15:55,-0.002,0.0,4.042,0.0
28/09/2022,18:16:54,-0.002,0.0,4.042,0.0
28/09/2022,18:17:54,-0.002,0.0,4.042,0.0
28/09/2022,18:18:55,-0.002,0.0,4.042,0.0
28/09/2022,18:19:54,-0.002,0.0,4.042,0.0
28/09/2022,18:20:54,-0.001,0.0,4.042,0.0
28/09/2022,18:21:54,-0.002,0.0,4.042,0.0
28/09/2022,18:22:54,-0.002,0.0,4.042,0.0
28/09/2022,18:23:54,-0.001,0.0,4.042,0.0
28/09/2022,18:24:55,-0.002,0.0,4.042,0.0
28/09/2022,18:25:54,-0.001,0.0,4.042,0.0
28/09/2022,18:26:55,-0.002,0.0,4.042,0.0
28/09/2022,18:27:54,-0.002,0.0,4.042,0.0
28/09/2022,18:28:55,-0.002,0.0,4.042,0.0
28/09/2022,18:29:55,-0.002,0.0,4.042,0.0
28/09/2022,18:30:54,-0.002,0.0,4.042,0.0
28/09/2022,18:31:54,-0.002,0.0,4.042,0.0
28/09/2022,18:32:54,-0.002,0.0,4.042,0.0
28/09/2022,18:33:55,-0.002,0.0,4.042,0.0
28/09/2022,18:34:54,-0.002,0.0,4.042,0.0
28/09/2022,18:35:54,-0.001,0.0,4.042,0.0
28/09/2022,18:36:54,-0.001,0.0,4.042,0.0
28/09/2022,18:37:54,-0.002,0.0,4.042,0.0
28/09/2022,18:38:54,-0.001,0.0,4.042,0.0
28/09/2022,18:39:55,-0.002,0.0,4.042,0.0
28/09/2022,18:40:54,-0.002,0.0,4.042,0.0
28/09/2022,18:41:54,-0.002,0.0,4.042,0.0
28/09/2022,18:42:54,-0.002,0.0,4.042,0.0
28/09/2022,18:43:54,-0.002,0.0,4.042,0.0
28/09/2022,18:44:55,-0.002,0.0,4.042,0.0
28/09/2022,18:45:54,-0.001,0.0,4.042,0.0
28/09/2022,18:46:54,-0.002,0.0,4.042,0.0
28/09/2022,18:47:54,-0.002,0.0,4.042,0.0
28/09/2022,18:48:55,-0.002,0.0,4.042,0.0
28/09/2022,18:49:54,-0.002,0.0,4.042,0.0
28/09/2022,18:50:54,-0.002,0.0,4.042,0.0
28/09/2022,18:51:54,-0.003,0.0,4.042,0.0
28/09/2022,18:52:54,-0.003,0.0,4.042,0.0
28/09/2022,18:53:55,-0.001,0.0,4.042,0.0
28/09/2022,18:54:54,-0.002,0.0,4.042,0.0
28/09/2022,18:55:55,-0.002,0.0,4.042,0.0
28/09/2022,18:56:54,-0.002,0.0,4.042,0.0
28/09/2022,18:57:54,-0.002,0.0,4.042,0.0
28/09/2022,18:58:55,-0.002,0.0,4.042,0.0
28/09/2022,18:59:54,-0.002,0.0,4.042,0.0
28/09/2022,19:00:54,-0.002,0.0,4.042,0.0
28/09/2022,19:01:54,-0.002,0.0,4.042,0.0
28/09/2022,19:02:55,-0.002,0.0,4.042,0.0
28/09/2022,19:03:54,-0.001,0.0,4.042,0.0
28/09/2022,19:04:54,-0.002,0.0,4.042,0.0
28/09/2022,19:05:55,-0.003,0.0,4.042,0.0
28/09/2022,19:06:54,-0.002,0.0,4.042,0.0
28/09/2022,19:07:54,-0.002,0.0,4.042,0.0
28/09/2022,19:08:54,-0.002,0.0,4.042,0.0
28/09/2022,19:09:54,-0.002,0.0,4.042,0.0
28/09/2022,19:10:54,-0.002,0.0,4.042,0.0
28/09/2022,19:11:54,-0.001,0.0,4.042,0.0
28/09/2022,19:12:54,-0.002,0.0,4.042,0.0
28/09/2022,19:13:54,-0.000,0.0,4.042,0.0
28/09/2022,19:14:54,-0.001,0.0,4.042,0.0
28/09/2022,19:15:54,-0.002,0.0,4.042,0.0
28/09/2022,19:16:55,-0.001,0.0,4.042,0.0
28/09/2022,19:17:54,-0.003,0.0,4.042,0.0
28/09/2022,19:18:54,-0.001,0.0,4.042,0.0
28/09/2022,19:19:54,-0.001,0.0,4.042,0.0
28/09/2022,19:20:54,-0.002,0.0,4.042,0.0
28/09/2022,19:21:55,-0.001,0.0,4.042,0.0
28/09/2022,19:22:54,0.000,0.0,4.042,0.0
28/09/2022,19:23:54,-0.001,0.0,4.042,0.0
28/09/2022,19:24:54,-0.000,0.0,4.042,0.0
28/09/2022,19:25:55,-0.001,0.0,4.042,0.0
28/09/2022,19:26:54,-0.002,0.0,4.042,0.0
28/09/2022,19:27:54,-0.002,0.0,4.042,0.0
28/09/2022,19:28:55,-0.001,0.0,4.042,0.0
28/09/2022,19:29:54,-0.001,0.0,4.042,0.0
28/09/2022,19:30:54,-0.002,0.0,4.042,0.0
28/09/2022,19:31:55,-0.002,0.0,4.042,0.0
28/09/2022,19:32:54,-0.002,0.0,4.042,0.0
28/09/2022,19:33:54,-0.002,0.0,4.042,0.0
28/09/2022,19:34:55,-0.001,0.0,4.042,0.0
28/09/2022,19:35:54,-0.003,0.0,4.042,0.0
28/09/2022,19:36:54,-0.002,0.0,4.042,0.0
28/09/2022,19:37:54,-0.001,0.0,4.042,0.0
28/09/2022,19:38:54,-0.002,0.0,4.042,0.0
28/09/2022,19:39:55,-0.002,0.0,4.042,0.0
28/09/2022,19:40:54,-0.002,0.0,4.042,0.0
28/09/2022,19:41:54,-0.001,0.0,4.042,0.0
28/09/2022,19:42:54,-0.002,0.0,4.042,0.0
28/09/2022,19:43:55,-0.001,0.0,4.042,0.0
28/09/2022,19:44:54,-0.001,0.0,4.042,0.0
28/09/2022,19:45:55,-0.001,0.0,4.042,0.0
28/09/2022,19:46:54,-0.002,0.0,4.042,0.0
28/09/2022,19:47:55,-0.001,0.0,4.042,0.0
28/09/2022,19:48:54,-0.001,0.0,4.042,0.0
28/09/2022,19:49:54,-0.001,0.0,4.042,0.0
28/09/2022,19:50:54,-0.001,0.0,4.042,0.0
28/09/2022,19:51:54,-0.000,0.0,4.042,0.0
28/09/2022,19:52:54,-0.001,0.0,4.042,0.0
28/09/2022,19:53:54,-0.002,0.0,4.042,0.0
28/09/2022,19:54:54,-0.002,0.0,4.042,0.0
28/09/2022,19:55:54,-0.001,0.0,4.042,0.0
28/09/2022,19:56:55,-0.001,0.0,4.042,0.0
28/09/2022,19:57:54,-0.001,0.0,4.042,0.0
28/09/2022,19:58:54,-0.001,0.0,4.042,0.0
28/09/2022,19:59:55,-0.000,0.0,4.042,0.0
28/09/2022,20:00:55,-0.001,0.0,4.042,0.0
28/09/2022,20:01:54,-0.001,0.0,4.042,0.0
28/09/2022,20:02:54,-0.000,0.0,4.042,0.0
28/09/2022,20:03:54,-0.001,0.0,4.042,0.0
28/09/2022,20:04:54,-0.001,0.0,4.042,0.0
28/09/2022,20:05:55,-0.001,0.0,4.042,0.0
28/09/2022,20:06:54,-0.001,0.0,4.042,0.0
28/09/2022,20:07:54,-0.002,0.0,4.042,0.0
28/09/2022,20:08:54,-0.001,0.0,4.042,0.0
28/09/2022,20:09:55,-0.002,0.0,4.042,0.0
28/09/2022,20:10:54,-0.001,0.0,4.042,0.0
28/09/2022,20:11:55,-0.002,0.0,4.042,0.0
28/09/2022,20:12:55,-0.002,0.0,4.042,0.0
28/09/2022,20:13:54,-0.001,0.0,4.042,0.0
28/09/2022,20:14:54,-0.002,0.0,4.042,0.0
28/09/2022,20:15:55,-0.002,0.0,4.042,0.0
28/09/2022,20:16:54,-0.000,0.0,4.042,0.0
28/09/2022,20:17:55,-0.001,0.0,4.042,0.0
28/09/2022,20:18:54,-0.002,0.0,4.042,0.0
28/09/2022,20:19:54,-0.001,0.0,4.042,0.0
28/09/2022,20:20:54,-0.001,0.0,4.042,0.0
28/09/2022,20:21:55,-0.000,0.0,4.042,0.0
28/09/2022,20:22:54,-0.001,0.0,4.042,0.0
28/09/2022,20:23:54,-0.001,0.0,4.042,0.0
28/09/2022,20:24:54,0.000,0.0,4.042,0.0
28/09/2022,20:25:54,-0.001,0.0,4.042,0.0
28/09/2022,20:26:54,0.000,0.0,4.042,0.0
28/09/2022,20:27:54,-0.001,0.0,4.042,0.0
28/09/2022,20:28:55,-0.001,0.0,4.042,0.0
28/09/2022,20:29:54,-0.002,0.0,4.042,0.0
28/09/2022,20:30:54,-0.001,0.0,4.042,0.0
28/09/2022,20:31:55,-0.001,0.0,4.042,0.0
28/09/2022,20:32:54,-0.001,0.0,4.042,0.0
28/09/2022,20:33:55,-0.001,0.0,4.042,0.0
28/09/2022,20:34:54,-0.001,0.0,4.042,0.0